Total_Precipitation_Accumulation
0.02 0.01 0.01 0.01 0.01 0.00 0.00 0.00 0.00 0.00 0.00 0.00 0.00 0.00 0.00 0.00 0.00 0.00 0.00 0.00 0.00 0.00 0.01 0.02 0.03 0.05 0.07 0.11 0.14 0.16 0.13 0.10 0.08 0.07 0.07 0.06 0.05 0.06 0.07 0.08 0.09 0.10 0.11
0.02 0.01 0.01 0.00 0.00 0.00 0.00 0.00 0.00 0.00 0.00 0.00 0.00 0.00 0.00 0.00 0.00 0.00 0.00 0.00 0.00 0.00 0.00 0.01 0.03 0.07 0.12 0.16 0.19 0.19 0.17 0.13 0.10 0.09 0.08 0.07 0.07 0.07 0.08 0.10 0.11 0.11 0.12
0.02 0.01 0.01 0.00 0.00 0.00 0.00 0.00 0.00 0.00 0.00 0.00 0.00 0.00 0.00 0.00 0.00 0.00 0.00 0.00 0.00 0.00 0.00 0.01 0.03 0.08 0.14 0.17 0.19 0.22 0.20 0.16 0.13 0.11 0.10 0.10 0.10 0.10 0.10 0.11 0.12 0.13 0.14
0.03 0.02 0.01 0.01 0.01 0.01 0.01 0.01 0.01 0.01 0.01 0.01 0.01 0.01 0.01 0.01 0.00 0.00 0.00 0.00 0.00 0.00 0.00 0.01 0.03 0.06 0.11 0.14 0.20 0.27 0.27 0.23 0.19 0.16 0.12 0.11 0.10 0.10 0.11 0.12 0.13 0.14 0.16
0.07 0.04 0.03 0.02 0.03 0.02 0.02 0.02 0.02 0.03 0.03 0.03 0.03 0.02 0.02 0.01 0.01 0.01 0.00 0.00 0.00 0.01 0.01 0.02 0.02 0.03 0.05 0.08 0.12 0.21 0.29 0.31 0.26 0.19 0.15 0.13 0.12 0.12 0.12 0.13 0.15 0.17 0.18
0.18 0.11 0.06 0.07 0.07 0.06 0.05 0.05 0.06 0.06 0.07 0.08 0.06 0.03 0.02 0.01 0.01 0.01 0.01 0.01 0.01 0.02 0.03 0.03 0.03 0.02 0.02 0.04 0.06 0.11 0.21 0.29 0.29 0.25 0.21 0.18 0.17 0.16 0.17 0.19 0.20 0.20 0.20
0.39 0.30 0.18 0.17 0.17 0.14 0.13 0.14 0.13 0.12 0.11 0.13 0.10 0.05 0.03 0.02 0.01 0.01 0.01 0.02 0.02 0.03 0.03 0.04 0.03 0.02 0.02 0.02 0.03 0.05 0.11 0.21 0.28 0.29 0.25 0.22 0.21 0.21 0.23 0.27 0.29 0.30 0.31
0.52 0.46 0.38 0.35 0.33 0.29 0.25 0.24 0.23 0.20 0.17 0.20 0.18 0.16 0.07 0.03 0.01 0.02 0.02 0.02 0.03 0.03 0.03 0.04 0.04 0.03 0.03 0.03 0.03 0.04 0.06 0.13 0.22 0.29 0.30 0.28 0.26 0.26 0.29 0.34 0.37 0.38 0.40
0.65 0.59 0.56 0.55 0.52 0.48 0.42 0.41 0.40 0.36 0.31 0.30 0.29 0.30 0.18 0.07 0.04 0.03 0.03 0.03 0.03 0.03 0.03 0.04 0.05 0.05 0.04 0.04 0.04 0.05 0.06 0.08 0.14 0.26 0.35 0.35 0.34 0.34 0.38 0.44 0.48 0.51 0.50
0.81 0.74 0.69 0.67 0.66 0.59 0.51 0.55 0.58 0.52 0.48 0.40 0.37 0.33 0.27 0.20 0.17 0.10 0.05 0.05 0.05 0.04 0.05 0.06 0.05 0.05 0.05 0.05 0.07 0.09 0.12 0.13 0.17 0.26 0.39 0.46 0.45 0.47 0.53 0.59 0.67 0.68 0.64
0.87 0.80 0.74 0.72 0.70 0.66 0.61 0.60 0.60 0.60 0.59 0.53 0.45 0.41 0.37 0.28 0.20 0.19 0.12 0.07 0.08 0.08 0.08 0.08 0.07 0.06 0.06 0.08 0.10 0.14 0.19 0.21 0.25 0.32 0.41 0.50 0.55 0.61 0.68 0.73 0.78 0.81 0.78
0.83 0.78 0.74 0.72 0.70 0.67 0.63 0.63 0.66 0.67 0.65 0.58 0.49 0.42 0.43 0.37 0.29 0.29 0.26 0.18 0.16 0.14 0.13 0.12 0.11 0.11 0.12 0.14 0.17 0.24 0.28 0.31 0.36 0.42 0.49 0.56 0.62 0.68 0.75 0.83 0.88 0.91 0.91
0.80 0.73 0.71 0.69 0.70 0.71 0.73 0.74 0.71 0.66 0.67 0.63 0.58 0.52 0.49 0.45 0.43 0.44 0.43 0.33 0.27 0.22 0.20 0.20 0.19 0.19 0.20 0.23 0.28 0.37 0.41 0.46 0.49 0.53 0.60 0.69 0.71 0.70 0.70 0.75 0.85 0.92 0.97
0.76 0.75 0.74 0.73 0.74 0.75 0.74 0.72 0.67 0.63 0.64 0.63 0.61 0.57 0.50 0.44 0.45 0.48 0.51 0.56 0.51 0.41 0.35 0.33 0.32 0.33 0.35 0.37 0.43 0.49 0.48 0.54 0.53 0.55 0.60 0.66 0.65 0.61 0.58 0.60 0.71 0.81 0.86
0.65 0.66 0.69 0.70 0.69 0.67 0.65 0.62 0.57 0.55 0.55 0.55 0.53 0.52 0.48 0.43 0.42 0.43 0.48 0.55 0.64 0.59 0.46 0.37 0.36 0.39 0.41 0.43 0.49 0.47 0.44 0.53 0.54 0.53 0.55 0.56 0.53 0.51 0.48 0.49 0.53 0.61 0.65
0.50 0.52 0.56 0.59 0.58 0.55 0.51 0.49 0.47 0.44 0.44 0.43 0.43 0.44 0.42 0.39 0.38 0.40 0.44 0.48 0.55 0.61 0.56 0.41 0.36 0.38 0.41 0.43 0.48 0.42 0.39 0.46 0.45 0.45 0.45 0.45 0.43 0.40 0.38 0.38 0.40 0.46 0.50
0.41 0.44 0.46 0.47 0.46 0.45 0.44 0.43 0.41 0.38 0.36 0.33 0.32 0.33 0.34 0.34 0.34 0.34 0.37 0.41 0.46 0.51 0.56 0.49 0.43 0.43 0.44 0.42 0.41 0.36 0.32 0.31 0.30 0.35 0.34 0.32 0.31 0.29 0.28 0.29 0.30 0.33 0.36
0.33 0.31 0.32 0.33 0.32 0.31 0.32 0.33 0.34 0.33 0.32 0.32 0.31 0.31 0.31 0.31 0.33 0.34 0.36 0.39 0.40 0.42 0.44 0.43 0.37 0.35 0.34 0.31 0.27 0.23 0.19 0.16 0.15 0.21 0.21 0.21 0.20 0.19 0.19 0.20 0.24 0.28 0.30
0.32 0.26 0.21 0.20 0.20 0.21 0.22 0.23 0.24 0.25 0.27 0.28 0.30 0.31 0.32 0.33 0.34 0.34 0.35 0.35 0.35 0.34 0.34 0.33 0.29 0.25 0.22 0.20 0.17 0.14 0.11 0.09 0.08 0.09 0.10 0.11 0.11 0.12 0.15 0.17 0.19 0.20 0.21
0.30 0.27 0.21 0.18 0.18 0.18 0.19 0.20 0.20 0.22 0.24 0.26 0.27 0.30 0.32 0.33 0.34 0.35 0.35 0.35 0.33 0.29 0.27 0.26 0.26 0.24 0.20 0.15 0.12 0.09 0.07 0.05 0.05 0.04 0.06 0.06 0.07 0.07 0.07 0.07 0.08 0.09 0.10
0.19 0.21 0.21 0.21 0.20 0.19 0.19 0.21 0.23 0.27 0.29 0.31 0.33 0.34 0.35 0.37 0.36 0.33 0.29 0.25 0.22 0.21 0.24 0.29 0.29 0.22 0.13 0.09 0.07 0.05 0.05 0.04 0.03 0.03 0.03 0.03 0.03 0.02 0.02 0.02 0.03 0.04 0.07
0.15 0.19 0.23 0.26 0.29 0.31 0.39 0.35 0.30 0.31 0.34 0.35 0.36 0.35 0.33 0.32 0.29 0.27 0.24 0.22 0.22 0.26 0.32 0.34 0.25 0.13 0.07 0.05 0.05 0.06 0.08 0.10 0.07 0.02 0.02 0.01 0.01 0.01 0.01 0.01 0.03 0.04 0.06
0.29 0.33 0.36 0.39 0.41 0.48 0.55 0.48 0.44 0.37 0.36 0.35 0.33 0.30 0.26 0.23 0.21 0.16 0.15 0.16 0.19 0.23 0.23 0.17 0.08 0.04 0.04 0.05 0.10 0.15 0.13 0.14 0.09 0.02 0.03 0.03 0.01 0.01 0.01 0.01 0.02 0.02 0.03
0.60 0.63 0.64 0.62 0.58 0.58 0.55 0.47 0.44 0.37 0.34 0.30 0.24 0.19 0.15 0.12 0.10 0.10 0.11 0.15 0.13 0.10 0.06 0.04 0.03 0.03 0.04 0.05 0.09 0.16 0.15 0.11 0.04 0.01 0.02 0.03 0.01 0.00 0.00 0.00 0.01 0.01 0.02
0.76 0.73 0.71 0.67 0.60 0.52 0.44 0.34 0.27 0.22 0.20 0.18 0.13 0.10 0.08 0.07 0.08 0.13 0.17 0.18 0.08 0.03 0.02 0.03 0.05 0.04 0.04 0.04 0.04 0.11 0.15 0.16 0.09 0.01 0.00 0.01 0.00 0.00 0.00 0.00 0.00 0.01 0.02
0.60 0.54 0.49 0.44 0.39 0.34 0.29 0.22 0.17 0.14 0.11 0.09 0.07 0.06 0.06 0.07 0.10 0.16 0.16 0.11 0.04 0.02 0.03 0.03 0.02 0.01 0.01 0.01 0.02 0.08 0.20 0.36 0.27 0.12 0.00 0.04 0.06 0.08 0.15 0.02 0.00 0.00 0.01